Dallas Love, TX

1:50 PM CDT on June 23, 2017 (GMT -0500)
Dallas Love

Weather History for KDAL - October, 2013

Change the Weather History Date:

Saturday, October 12, 2013

  Actual Average Record
Temperature  
Mean Temperature 82 °F -  
Max Temperature 91 °F 77 °F 93 °F (2015)
Min Temperature 72 °F 57 °F 54 °F (2006)
Cooling Degree Days 17    
Growing Degree Days 32 (Base 50)    
Moisture  
Dew Point 70 °F    
Average Humidity 73    
Maximum Humidity 89    
Minimum Humidity 45    
Precipitation  
Precipitation 0.00 in - - ()
Sea Level Pressure  
Sea Level Pressure 29.94 in    
Wind  
Wind Speed 10 mph (South)    
Max Wind Speed 24 mph    
Max Gust Speed 31 mph    
Visibility 10 miles    
Events Rain    
Averages and records for this station are not official NWS values.
T = Trace of Precipitation, MM = Missing Value Source: NWS Daily Summary

Daily Weather History Graph

Daily Weather History Graph

Search for Another Location

Airport or City:

Trip Planner

Search our weather history database for the weather conditions in past years. The results will help you decide how hot, cold, wet, or windy it might be!

Date:

Astronomy

Oct. 12, 2013 Rise Set
Actual Time 7:29 AM CDT 6:57 PM CDT
Civil Twilight 7:04 AM CDT 7:22 PM CDT
Nautical Twilight 6:36 AM CDT 7:50 PM CDT
Astronomical Twilight 6:07 AM CDT 8:19 PM CDT
Moon 2:49 PM CDT (10/12) 12:54 AM CDT (10/12)
Length of Visible Light 12h 17m
Length of Day
11h 28m
First Quarter, 59% of the Moon is Illuminated
Oct 12
First Quarter
Oct 18
Full
Oct 26
Last Quarter
Nov 3
New
Nov 9
First Quarter

Hourly Weather History & Observations

Time (CDT) Temp. Heat Index Dew Point Humidity Pressure Visibility Wind Dir Wind Speed Gust Speed Precip Events Conditions
12:53 AM 79.0 °F - 70.0 °F 74% 29.86 in 10.0 mi SSE 12.7 mph - N/A   Scattered Clouds
1:42 AM 78.8 °F - 69.8 °F 74% 29.90 in 10.0 mi South 11.5 mph - N/A   Mostly Cloudy
1:51 AM 78.8 °F - 69.8 °F 74% 29.90 in 10.0 mi South 12.7 mph - N/A   Scattered Clouds
1:53 AM 77.0 °F - 70.0 °F 79% 29.88 in 10.0 mi South 11.5 mph - N/A   Scattered Clouds
2:19 AM 77.0 °F - 69.8 °F 78% 29.90 in 10.0 mi South 15.0 mph - N/A   Mostly Cloudy
2:53 AM 77.0 °F - 71.1 °F 82% 29.88 in 10.0 mi South 10.4 mph - N/A   Mostly Cloudy
3:19 AM 78.8 °F - 71.6 °F 78% 29.90 in 10.0 mi South 13.8 mph - N/A   Overcast
3:53 AM 78.1 °F - 71.1 °F 79% 29.88 in 10.0 mi South 12.7 mph - N/A   Overcast
4:29 AM 78.8 °F - 71.6 °F 78% 29.91 in 10.0 mi South 10.4 mph - N/A   Overcast
4:53 AM 79.0 °F - 71.1 °F 77% 29.89 in 10.0 mi South 6.9 mph - N/A   Overcast
5:07 AM 78.8 °F - 71.6 °F 78% 29.91 in 10.0 mi South 10.4 mph - N/A   Scattered Clouds
5:34 AM 78.8 °F - 71.6 °F 78% 29.92 in 10.0 mi South 8.1 mph - N/A   Overcast
5:53 AM 78.1 °F - 71.1 °F 79% 29.91 in 10.0 mi South 6.9 mph - N/A   Overcast
6:37 AM 77.0 °F - 71.6 °F 83% 29.94 in 10.0 mi South 5.8 mph - N/A   Scattered Clouds
6:53 AM 75.9 °F - 71.1 °F 85% 29.93 in 10.0 mi South 5.8 mph - N/A   Partly Cloudy
7:37 AM 75.2 °F - 71.6 °F 89% 29.96 in 10.0 mi South 5.8 mph - N/A   Mostly Cloudy
7:53 AM 75.0 °F - 71.1 °F 87% 29.94 in 10.0 mi South 3.5 mph - N/A   Mostly Cloudy
8:27 AM 77.0 °F - 71.6 °F 83% 29.98 in 10.0 mi South 6.9 mph - N/A   Mostly Cloudy
8:53 AM 78.1 °F - 72.0 °F 81% 29.97 in 10.0 mi South 6.9 mph - N/A   Overcast
9:53 AM 80.1 °F 83.8 °F 72.0 °F 76% 29.98 in 10.0 mi SW 5.8 mph - N/A   Mostly Cloudy
10:53 AM 82.9 °F 88.0 °F 72.0 °F 69% 29.99 in 10.0 mi SSW 6.9 mph - N/A   Mostly Cloudy
11:53 AM 84.9 °F 91.4 °F 73.0 °F 67% 29.97 in 10.0 mi SSW 6.9 mph - N/A   Scattered Clouds
12:29 PM 87.8 °F 95.6 °F 73.4 °F 62% 29.99 in 10.0 mi Variable 5.8 mph - N/A   Mostly Cloudy
12:53 PM 88.0 °F 95.6 °F 73.0 °F 61% 29.96 in 10.0 mi Variable 6.9 mph - N/A   Mostly Cloudy
1:25 PM 89.6 °F 96.2 °F 71.6 °F 55% 29.96 in 10.0 mi Variable 3.5 mph - N/A   Mostly Cloudy
1:53 PM 89.1 °F 95.0 °F 71.1 °F 55% 29.92 in 10.0 mi Variable 3.5 mph - N/A   Scattered Clouds
2:53 PM 91.9 °F 95.9 °F 68.0 °F 45% 29.91 in 10.0 mi Calm Calm - N/A   Mostly Cloudy
3:53 PM 86.0 °F 89.4 °F 68.0 °F 55% 29.92 in 10.0 mi SSE 24.2 mph 31.1 mph N/A   Mostly Cloudy
4:53 PM 79.0 °F - 66.9 °F 66% 29.91 in 10.0 mi South 12.7 mph - 0.00 in Rain Light Rain
5:53 PM 81.0 °F 82.7 °F 64.9 °F 58% 29.94 in 10.0 mi East 8.1 mph - 0.00 in   Mostly Cloudy
6:53 PM 80.1 °F 82.3 °F 66.9 °F 64% 29.95 in 10.0 mi Calm Calm - 0.00 in   Partly Cloudy
7:53 PM 79.0 °F - 66.9 °F 66% 29.98 in 10.0 mi SE 8.1 mph - N/A   Scattered Clouds
8:53 PM 77.0 °F - 68.0 °F 74% 30.02 in 10.0 mi East 10.4 mph - N/A   Scattered Clouds
9:53 PM 75.9 °F - 66.9 °F 74% 30.05 in 10.0 mi ESE 11.5 mph - N/A   Scattered Clouds
10:53 PM 73.9 °F - 66.9 °F 79% 30.06 in 10.0 mi SSE 17.3 mph - N/A   Scattered Clouds
11:53 PM 72.0 °F - 66.0 °F 81% 30.05 in 10.0 mi SE 6.9 mph - N/A   Partly Cloudy